Time,TemperatureF,DewpointF,PressureIn,WindDirection,WindDirectionDegrees,WindSpeedMPH,WindSpeedGustMPH,Humidity,HourlyPrecipIn,Conditions,Clouds,dailyrainin,SoftwareType,DateUTC
2013-09-10 00:01:00,65.6,62.9,30.17,South,190,0.0,1.0,91,0.00,,SCT100,0.00,VWS V14.01,2013-09-10 04:01:00,
2013-09-10 00:03:00,65.7,63.0,30.17,South,190,0.0,1.0,91,0.00,,SCT100,0.00,VWS V14.01,2013-09-10 04:03:00,
2013-09-10 00:07:00,65.7,63.0,30.17,South,190,0.0,1.0,91,0.00,,SCT100,0.00,VWS V14.01,2013-09-10 04:07:00,
2013-09-10 00:12:00,65.6,62.9,30.18,South,190,0.0,1.0,91,0.00,,SCT100,0.00,VWS V14.01,2013-09-10 04:12:00,
2013-09-10 00:17:00,65.5,63.1,30.17,South,190,0.0,1.0,92,0.00,,SCT100,0.00,VWS V14.01,2013-09-10 04:17:00,
2013-09-10 00:22:00,65.5,63.1,30.18,South,190,0.0,2.0,92,0.00,,SCT100,0.00,VWS V14.01,2013-09-10 04:22:00,
2013-09-10 00:28:00,65.5,63.1,30.18,South,190,0.0,2.0,92,0.00,,SCT100,0.00,VWS V14.01,2013-09-10 04:28:00,
2013-09-10 00:33:00,65.5,63.4,30.17,South,190,0.0,0.0,93,0.00,,SCT100,0.00,VWS V14.01,2013-09-10 04:33:00,
2013-09-10 00:38:00,65.5,63.4,30.17,South,190,0.0,0.0,93,0.01,,SCT100,0.01,VWS V14.01,2013-09-10 04:38:00,
2013-09-10 00:43:00,65.5,63.4,30.16,South,190,0.0,4.0,93,0.01,,SCT100,0.01,VWS V14.01,2013-09-10 04:43:00,
2013-09-10 00:48:00,65.5,63.4,30.16,South,190,2.0,4.0,93,0.01,,SCT100,0.01,VWS V14.01,2013-09-10 04:48:00,
2013-09-10 00:53:00,65.4,63.6,30.16,South,190,0.0,4.0,94,0.01,,SCT100,0.01,VWS V14.01,2013-09-10 04:53:00,
2013-09-10 00:58:00,65.4,63.9,30.16,South,190,0.0,4.0,95,0.01,,SCT100,0.01,VWS V14.01,2013-09-10 04:58:00,
2013-09-10 01:03:00,65.3,63.8,30.16,South,190,0.0,1.0,95,0.01,,BKN095,0.01,VWS V14.01,2013-09-10 05:03:00,
2013-09-10 01:08:00,65.2,63.7,30.16,South,190,0.0,1.0,95,0.01,,BKN095,0.01,VWS V14.01,2013-09-10 05:08:00,
2013-09-10 01:13:00,65.2,63.7,30.16,South,190,0.0,1.0,95,0.01,,BKN095,0.01,VWS V14.01,2013-09-10 05:13:00,
2013-09-10 01:18:00,65.1,63.9,30.15,South,190,0.0,1.0,96,0.01,,BKN095,0.01,VWS V14.01,2013-09-10 05:18:00,
2013-09-10 01:23:00,65.1,63.9,30.15,South,190,0.0,1.0,96,0.01,,BKN095,0.01,VWS V14.01,2013-09-10 05:23:00,
2013-09-10 01:28:00,65.0,63.8,30.15,South,190,0.0,1.0,96,0.01,,BKN095,0.01,VWS V14.01,2013-09-10 05:28:00,
2013-09-10 01:32:00,65.0,63.8,30.16,South,190,0.0,4.0,96,0.01,,BKN095,0.01,VWS V14.01,2013-09-10 05:32:00,
2013-09-10 01:37:00,65.0,63.8,30.16,South,190,0.0,4.0,96,0.01,,BKN095,0.01,VWS V14.01,2013-09-10 05:37:00,
2013-09-10 01:42:00,65.0,63.8,30.16,South,190,0.0,4.0,96,0.01,,BKN095,0.01,VWS V14.01,2013-09-10 05:42:00,
2013-09-10 01:48:00,65.0,63.8,30.16,South,190,2.0,4.0,96,0.01,,BKN095,0.01,VWS V14.01,2013-09-10 05:48:00,
2013-09-10 01:53:00,65.0,64.1,30.16,South,190,0.0,4.0,97,0.01,,BKN095,0.01,VWS V14.01,2013-09-10 05:53:00,
2013-09-10 01:58:00,65.0,63.8,30.16,South,190,0.0,4.0,96,0.01,,BKN095,0.01,VWS V14.01,2013-09-10 05:58:00,
2013-09-10 02:03:00,65.1,64.2,30.16,South,190,0.0,0.0,97,0.00,,FEW095,0.01,VWS V14.01,2013-09-10 06:03:00,
2013-09-10 02:08:00,65.1,64.2,30.16,South,190,0.0,1.0,97,0.00,,FEW095,0.01,VWS V14.01,2013-09-10 06:08:00,
2013-09-10 02:13:00,65.1,63.9,30.16,South,190,0.0,1.0,96,0.00,,FEW095,0.01,VWS V14.01,2013-09-10 06:13:00,
2013-09-10 02:18:00,65.1,63.9,30.16,South,190,0.0,1.0,96,0.00,,FEW095,0.01,VWS V14.01,2013-09-10 06:18:00,
2013-09-10 02:23:00,65.1,64.2,30.16,South,190,0.0,1.0,97,0.00,,FEW095,0.01,VWS V14.01,2013-09-10 06:23:00,
2013-09-10 02:28:00,65.1,64.2,30.16,South,190,0.0,1.0,97,0.00,,FEW095,0.01,VWS V14.01,2013-09-10 06:28:00,
2013-09-10 02:33:00,65.1,64.2,30.15,South,190,0.0,0.0,97,0.00,,OVC080,0.01,VWS V14.01,2013-09-10 06:33:00,
2013-09-10 02:38:00,65.1,64.2,30.15,South,190,0.0,0.0,97,0.00,,OVC080,0.01,VWS V14.01,2013-09-10 06:38:00,
2013-09-10 02:43:00,65.2,64.3,30.15,South,190,0.0,0.0,97,0.00,,OVC080,0.01,VWS V14.01,2013-09-10 06:43:00,
2013-09-10 02:48:00,65.2,64.3,30.15,South,190,1.0,1.0,97,0.00,,OVC080,0.01,VWS V14.01,2013-09-10 06:48:00,
2013-09-10 02:53:00,65.3,64.7,30.15,South,190,0.0,3.0,98,0.00,,OVC080,0.01,VWS V14.01,2013-09-10 06:53:00,
2013-09-10 02:58:00,65.3,64.7,30.15,South,190,0.0,3.0,98,0.00,,OVC080,0.01,VWS V14.01,2013-09-10 06:58:00,
2013-09-10 03:03:00,65.4,64.8,30.15,South,190,0.0,0.0,98,0.00,,OVC080,0.01,VWS V14.01,2013-09-10 07:03:00,
2013-09-10 03:08:00,65.4,64.5,30.15,South,190,0.0,0.0,97,0.00,,OVC080,0.01,VWS V14.01,2013-09-10 07:08:00,
2013-09-10 03:13:00,65.4,64.8,30.15,South,190,0.0,0.0,98,0.00,,OVC080,0.01,VWS V14.01,2013-09-10 07:13:00,
2013-09-10 03:18:00,65.5,64.9,30.15,South,190,0.0,1.0,98,0.00,,OVC080,0.01,VWS V14.01,2013-09-10 07:18:00,
2013-09-10 03:23:00,65.6,65.0,30.15,South,190,0.0,1.0,98,0.00,,OVC080,0.01,VWS V14.01,2013-09-10 07:23:00,
2013-09-10 03:28:00,65.7,65.1,30.15,South,190,0.0,1.0,98,0.00,,OVC080,0.01,VWS V14.01,2013-09-10 07:28:00,
2013-09-10 03:33:00,65.7,65.1,30.15,South,190,0.0,0.0,98,0.00,,SCT023,0.01,VWS V14.01,2013-09-10 07:33:00,
2013-09-10 03:38:00,65.7,65.1,30.15,South,190,0.0,0.0,98,0.00,,SCT023,0.01,VWS V14.01,2013-09-10 07:38:00,
2013-09-10 03:43:00,65.8,65.2,30.15,South,190,0.0,0.0,98,0.00,,SCT023,0.01,VWS V14.01,2013-09-10 07:43:00,
2013-09-10 03:48:00,65.8,65.2,30.15,South,190,0.0,0.0,98,0.00,,SCT023,0.01,VWS V14.01,2013-09-10 07:48:00,
2013-09-10 03:53:00,65.8,65.2,30.16,South,190,0.0,0.0,98,0.00,,SCT023,0.01,VWS V14.01,2013-09-10 07:53:00,
2013-09-10 03:58:00,65.9,65.3,30.16,South,190,0.0,0.0,98,0.00,,SCT023,0.01,VWS V14.01,2013-09-10 07:58:00,
2013-09-10 04:03:00,65.9,65.3,30.16,South,190,0.0,0.0,98,0.00,,OVC023,0.01,VWS V14.01,2013-09-10 08:03:00,
2013-09-10 04:08:00,66.0,65.4,30.16,South,190,0.0,0.0,98,0.00,,OVC023,0.01,VWS V14.01,2013-09-10 08:08:00,
2013-09-10 04:13:00,66.0,65.4,30.16,South,190,0.0,0.0,98,0.00,,OVC023,0.01,VWS V14.01,2013-09-10 08:13:00,
2013-09-10 04:18:00,66.1,65.5,30.16,South,190,0.0,0.0,98,0.00,,OVC023,0.01,VWS V14.01,2013-09-10 08:18:00,
2013-09-10 04:23:00,66.1,65.5,30.16,South,190,0.0,0.0,98,0.00,,OVC023,0.01,VWS V14.01,2013-09-10 08:23:00,
2013-09-10 04:28:00,66.1,65.5,30.17,South,190,0.0,0.0,98,0.00,,OVC023,0.01,VWS V14.01,2013-09-10 08:28:00,
2013-09-10 04:33:00,66.1,65.5,30.17,South,190,0.0,0.0,98,0.00,,OVC023,0.01,VWS V14.01,2013-09-10 08:33:00,
2013-09-10 04:38:00,66.1,65.5,30.16,South,190,0.0,0.0,98,0.00,,OVC023,0.01,VWS V14.01,2013-09-10 08:38:00,
2013-09-10 04:43:00,66.1,65.5,30.16,South,190,0.0,0.0,98,0.00,,OVC023,0.01,VWS V14.01,2013-09-10 08:43:00,
2013-09-10 04:48:00,66.1,65.5,30.16,South,190,0.0,0.0,98,0.00,,OVC023,0.01,VWS V14.01,2013-09-10 08:48:00,
2013-09-10 04:53:00,66.0,65.4,30.16,South,190,0.0,0.0,98,0.00,,OVC023,0.01,VWS V14.01,2013-09-10 08:53:00,
2013-09-10 04:58:00,66.1,65.5,30.16,South,190,0.0,0.0,98,0.00,,OVC023,0.01,VWS V14.01,2013-09-10 08:58:00,
2013-09-10 05:03:00,66.0,65.4,30.17,South,190,0.0,0.0,98,0.00,,OVC060,0.01,VWS V14.01,2013-09-10 09:03:00,
2013-09-10 05:08:00,66.1,65.5,30.17,South,190,0.0,0.0,98,0.00,,OVC060,0.01,VWS V14.01,2013-09-10 09:08:00,
2013-09-10 05:13:00,66.0,65.4,30.17,South,190,0.0,0.0,98,0.00,,OVC060,0.01,VWS V14.01,2013-09-10 09:13:00,
2013-09-10 05:18:00,66.1,65.5,30.17,South,190,0.0,0.0,98,0.00,,OVC060,0.01,VWS V14.01,2013-09-10 09:18:00,
2013-09-10 05:23:00,66.1,65.5,30.17,South,190,0.0,0.0,98,0.00,,OVC060,0.01,VWS V14.01,2013-09-10 09:23:00,
2013-09-10 05:28:00,66.0,65.4,30.17,South,190,0.0,0.0,98,0.00,,OVC060,0.01,VWS V14.01,2013-09-10 09:28:00,
2013-09-10 05:33:00,66.0,65.4,30.17,South,190,0.0,0.0,98,0.00,,OVC060,0.01,VWS V14.01,2013-09-10 09:33:00,
2013-09-10 05:38:00,65.9,65.0,30.17,South,190,0.0,0.0,97,0.00,,OVC060,0.01,VWS V14.01,2013-09-10 09:38:00,
2013-09-10 05:43:00,65.8,64.9,30.16,South,190,1.0,1.0,97,0.00,,OVC060,0.01,VWS V14.01,2013-09-10 09:43:00,
2013-09-10 05:48:00,65.8,64.9,30.17,South,190,0.0,1.0,97,0.00,,OVC060,0.01,VWS V14.01,2013-09-10 09:48:00,
2013-09-10 05:53:00,65.7,64.8,30.17,South,190,0.0,1.0,97,0.00,,OVC060,0.01,VWS V14.01,2013-09-10 09:53:00,
2013-09-10 05:58:00,65.6,64.7,30.17,South,190,0.0,1.0,97,0.00,,OVC060,0.01,VWS V14.01,2013-09-10 09:58:00,
2013-09-10 06:03:00,65.5,64.6,30.17,South,190,0.0,0.0,97,0.00,,BKN075,0.01,VWS V14.01,2013-09-10 10:03:00,
2013-09-10 06:08:00,65.5,64.6,30.17,South,190,0.0,0.0,97,0.00,,BKN075,0.01,VWS V14.01,2013-09-10 10:08:00,
2013-09-10 06:13:00,65.4,64.2,30.17,South,190,0.0,0.0,96,0.00,,BKN075,0.01,VWS V14.01,2013-09-10 10:13:00,
2013-09-10 06:18:00,65.3,64.1,30.17,South,190,0.0,0.0,96,0.00,,BKN075,0.01,VWS V14.01,2013-09-10 10:18:00,
2013-09-10 06:23:00,65.2,64.3,30.17,South,190,0.0,0.0,97,0.00,,BKN075,0.01,VWS V14.01,2013-09-10 10:23:00,
2013-09-10 06:28:00,65.0,63.8,30.17,South,189,0.0,0.0,96,0.00,,BKN075,0.01,VWS V14.01,2013-09-10 10:28:00,
2013-09-10 06:33:00,64.9,63.7,30.18,South,190,0.0,0.0,96,0.00,,BKN075,0.01,VWS V14.01,2013-09-10 10:33:00,
2013-09-10 06:38:00,64.8,63.9,30.18,South,190,0.0,0.0,97,0.00,,BKN075,0.01,VWS V14.01,2013-09-10 10:38:00,
2013-09-10 06:43:00,64.7,63.8,30.18,South,190,0.0,1.0,97,0.00,,BKN075,0.01,VWS V14.01,2013-09-10 10:43:00,
2013-09-10 06:48:00,64.7,63.8,30.18,South,190,0.0,1.0,97,0.00,,BKN075,0.01,VWS V14.01,2013-09-10 10:48:00,
2013-09-10 06:53:00,64.6,63.4,30.18,South,190,0.0,1.0,96,0.00,,BKN075,0.01,VWS V14.01,2013-09-10 10:53:00,
2013-09-10 06:58:00,64.6,63.7,30.18,South,191,0.0,1.0,97,0.00,,BKN075,0.01,VWS V14.01,2013-09-10 10:58:00,
2013-09-10 07:03:00,64.6,63.7,30.18,South,190,0.0,0.0,97,0.00,,,0.01,VWS V14.01,2013-09-10 11:03:00,
2013-09-10 07:08:00,64.6,63.7,30.18,South,190,0.0,0.0,97,0.00,,,0.01,VWS V14.01,2013-09-10 11:08:00,
2013-09-10 07:13:00,64.6,63.7,30.18,South,190,0.0,0.0,97,0.00,,,0.01,VWS V14.01,2013-09-10 11:13:00,
2013-09-10 07:18:00,64.7,64.1,30.18,South,190,0.0,1.0,98,0.00,,,0.01,VWS V14.01,2013-09-10 11:18:00,
2013-09-10 07:23:00,64.7,63.8,30.18,South,190,0.0,1.0,97,0.00,,,0.01,VWS V14.01,2013-09-10 11:23:00,
2013-09-10 07:29:00,64.9,64.0,30.17,South,190,0.0,1.0,97,0.00,,,0.01,VWS V14.01,2013-09-10 11:29:00,
2013-09-10 07:34:00,65.0,64.1,30.18,South,190,0.0,0.0,97,0.00,,,0.01,VWS V14.01,2013-09-10 11:34:00,
2013-09-10 07:39:00,65.1,64.2,30.18,South,190,0.0,0.0,97,0.00,,,0.00,VWS V14.01,2013-09-10 11:39:00,
2013-09-10 07:44:00,65.2,64.3,30.18,South,190,0.0,0.0,97,0.00,,,0.01,VWS V14.01,2013-09-10 11:44:00,
2013-09-10 07:49:00,65.4,64.5,30.18,South,190,0.0,0.0,97,0.00,,,0.00,VWS V14.01,2013-09-10 11:49:00,
2013-09-10 07:54:00,65.5,64.6,30.18,South,190,0.0,0.0,97,0.00,,,0.01,VWS V14.01,2013-09-10 11:54:00,
2013-09-10 07:59:00,65.7,64.8,30.18,South,190,0.0,0.0,97,0.00,,,0.01,VWS V14.01,2013-09-10 11:59:00,
2013-09-10 08:04:00,65.9,65.0,30.18,South,190,0.0,0.0,97,0.00,,BKN075,0.01,VWS V14.01,2013-09-10 12:04:00,
2013-09-10 08:09:00,66.2,65.3,30.18,South,190,0.0,0.0,97,0.00,,BKN075,0.01,VWS V14.01,2013-09-10 12:09:00,
2013-09-10 08:14:00,66.3,65.4,30.18,South,190,0.0,0.0,97,0.00,,BKN075,0.01,VWS V14.01,2013-09-10 12:14:00,
2013-09-10 08:19:00,66.6,65.7,30.17,South,191,0.0,1.0,97,0.00,,BKN075,0.01,VWS V14.01,2013-09-10 12:19:00,
2013-09-10 08:24:00,66.9,65.7,30.17,South,190,0.0,1.0,96,0.00,,BKN075,0.01,VWS V14.01,2013-09-10 12:24:00,
2013-09-10 08:29:00,67.2,65.7,30.17,South,190,0.0,1.0,95,0.00,,BKN075,0.01,VWS V14.01,2013-09-10 12:29:00,
2013-09-10 08:34:00,67.5,66.0,30.17,South,190,0.0,0.0,95,0.00,,BKN075,0.01,VWS V14.01,2013-09-10 12:34:00,
2013-09-10 08:39:00,67.9,66.4,30.17,South,190,0.0,0.0,95,0.00,,BKN075,0.01,VWS V14.01,2013-09-10 12:39:00,
2013-09-10 08:44:00,68.3,66.8,30.18,South,190,0.0,0.0,95,0.00,,BKN075,0.01,VWS V14.01,2013-09-10 12:44:00,
2013-09-10 08:49:00,68.9,67.4,30.18,South,190,0.0,0.0,95,0.00,,BKN075,0.01,VWS V14.01,2013-09-10 12:49:00,
2013-09-10 08:54:00,69.5,67.7,30.19,South,190,0.0,0.0,94,0.00,,BKN075,0.01,VWS V14.01,2013-09-10 12:54:00,
2013-09-10 08:59:00,70.1,68.3,30.19,South,190,0.0,0.0,94,0.00,,BKN075,0.01,VWS V14.01,2013-09-10 12:59:00,
2013-09-10 09:04:00,70.6,68.2,30.19,South,190,0.0,1.0,92,0.00,,CLR,0.01,VWS V14.01,2013-09-10 13:04:00,
2013-09-10 09:09:00,71.0,68.6,30.20,South,191,0.0,1.0,92,0.00,,CLR,0.01,VWS V14.01,2013-09-10 13:09:00,
2013-09-10 09:14:00,71.5,68.7,30.20,South,190,0.0,1.0,91,0.00,,CLR,0.01,VWS V14.01,2013-09-10 13:14:00,
2013-09-10 09:19:00,71.9,68.8,30.20,South,190,0.0,1.0,90,0.00,,CLR,0.01,VWS V14.01,2013-09-10 13:19:00,
2013-09-10 09:24:00,72.2,68.8,30.19,South,190,0.0,1.0,89,0.00,,CLR,0.01,VWS V14.01,2013-09-10 13:24:00,
2013-09-10 09:29:00,72.6,69.2,30.19,South,190,0.0,1.0,89,0.00,,CLR,0.01,VWS V14.01,2013-09-10 13:29:00,
2013-09-10 09:34:00,73.1,69.3,30.19,South,190,0.0,1.0,88,0.00,,CLR,0.01,VWS V14.01,2013-09-10 13:34:00,
2013-09-10 09:39:00,73.7,69.6,30.20,South,190,0.0,1.0,87,0.00,,CLR,0.01,VWS V14.01,2013-09-10 13:39:00,
2013-09-10 09:44:00,74.3,69.8,30.20,South,190,0.0,1.0,86,0.00,,CLR,0.01,VWS V14.01,2013-09-10 13:44:00,
2013-09-10 09:49:00,74.9,69.7,30.19,South,191,3.0,5.0,84,0.00,,CLR,0.01,VWS V14.01,2013-09-10 13:49:00,
2013-09-10 09:54:00,75.4,70.2,30.20,South,190,0.0,5.0,84,0.00,,CLR,0.01,VWS V14.01,2013-09-10 13:54:00,
2013-09-10 09:59:00,75.8,69.9,30.20,South,191,3.0,5.0,82,0.00,,CLR,0.01,VWS V14.01,2013-09-10 13:59:00,
2013-09-10 10:04:00,75.6,69.7,30.20,North,360,3.0,8.0,82,0.00,,CLR,0.01,VWS V14.01,2013-09-10 14:04:00,
2013-09-10 10:09:00,75.7,70.2,30.20,West,259,0.0,8.0,83,0.00,,CLR,0.01,VWS V14.01,2013-09-10 14:09:00,
2013-09-10 10:14:00,76.2,70.7,30.20,West,275,0.0,8.0,83,0.00,,CLR,0.01,VWS V14.01,2013-09-10 14:14:00,
2013-09-10 10:19:00,76.9,71.0,30.19,SW,216,0.0,8.0,82,0.00,,CLR,0.01,VWS V14.01,2013-09-10 14:19:00,
2013-09-10 10:24:00,77.4,71.1,30.18,WSW,247,0.0,8.0,81,0.00,,CLR,0.01,VWS V14.01,2013-09-10 14:24:00,
2013-09-10 10:29:00,78.0,71.0,30.18,SW,236,4.0,8.0,79,0.00,,CLR,0.01,VWS V14.01,2013-09-10 14:29:00,
2013-09-10 10:34:00,78.5,71.1,30.18,WSW,253,2.0,9.0,78,0.00,,CLR,0.01,VWS V14.01,2013-09-10 14:34:00,
2013-09-10 10:39:00,79.1,71.7,30.18,North,356,1.0,9.0,78,0.00,,CLR,0.01,VWS V14.01,2013-09-10 14:39:00,
2013-09-10 10:44:00,79.6,72.1,30.18,WSW,246,0.0,9.0,78,0.00,,CLR,0.01,VWS V14.01,2013-09-10 14:44:00,
2013-09-10 10:49:00,80.1,71.5,30.17,WSW,242,3.0,9.0,75,0.00,,CLR,0.01,VWS V14.01,2013-09-10 14:49:00,
2013-09-10 10:54:00,80.5,72.2,30.16,SSW,204,7.0,9.0,76,0.00,,CLR,0.00,VWS V14.01,2013-09-10 14:54:00,
2013-09-10 10:59:00,81.0,72.3,30.15,West,263,4.0,9.0,75,0.00,,CLR,0.01,VWS V14.01,2013-09-10 14:59:00,
2013-09-10 11:04:00,81.1,72.4,30.15,SW,232,5.0,12.0,75,0.00,,CLR,0.01,VWS V14.01,2013-09-10 15:04:00,
2013-09-10 11:09:00,81.6,72.9,30.16,SSW,193,2.0,12.0,75,0.00,,CLR,0.01,VWS V14.01,2013-09-10 15:09:00,
2013-09-10 11:14:00,82.2,72.7,30.16,South,188,6.0,12.0,73,0.00,,CLR,0.01,VWS V14.01,2013-09-10 15:14:00,
2013-09-10 11:19:00,82.8,72.9,30.16,WSW,237,6.0,12.0,72,0.00,,CLR,0.01,VWS V14.01,2013-09-10 15:19:00,
2013-09-10 11:24:00,83.1,73.1,30.16,SSW,199,6.0,12.0,72,0.00,,CLR,0.01,VWS V14.01,2013-09-10 15:24:00,
2013-09-10 11:29:00,83.5,73.1,30.16,SW,232,3.0,12.0,71,0.00,,CLR,0.01,VWS V14.01,2013-09-10 15:29:00,
2013-09-10 11:34:00,83.9,73.1,30.16,WSW,258,4.0,9.0,70,0.00,,CLR,0.01,VWS V14.01,2013-09-10 15:34:00,
2013-09-10 11:39:00,84.3,73.5,30.16,SW,235,2.0,9.0,70,0.00,,CLR,0.01,VWS V14.01,2013-09-10 15:39:00,
2013-09-10 11:44:00,84.8,73.9,30.16,SSW,200,7.0,9.0,70,0.00,,CLR,0.01,VWS V14.01,2013-09-10 15:44:00,
2013-09-10 11:49:00,84.9,73.6,30.15,SW,232,4.0,9.0,69,0.00,,CLR,0.01,VWS V14.01,2013-09-10 15:49:00,
2013-09-10 11:54:00,85.1,73.8,30.15,WSW,256,4.0,9.0,69,0.00,,CLR,0.01,VWS V14.01,2013-09-10 15:54:00,
2013-09-10 11:59:00,85.7,73.9,30.15,SW,232,4.0,10.0,68,0.00,,CLR,0.01,VWS V14.01,2013-09-10 15:59:00,
2013-09-10 12:04:00,86.3,74.5,30.15,WSW,252,8.0,15.0,68,0.00,,CLR,0.01,VWS V14.01,2013-09-10 16:04:00,
2013-09-10 12:09:00,86.7,74.4,30.15,WSW,257,2.0,15.0,67,0.00,,CLR,0.01,VWS V14.01,2013-09-10 16:09:00,
2013-09-10 12:14:00,87.0,74.3,30.15,WSW,246,4.0,15.0,66,0.00,,CLR,0.01,VWS V14.01,2013-09-10 16:14:00,
2013-09-10 12:19:00,87.4,74.7,30.15,SW,218,6.0,15.0,66,0.00,,CLR,0.01,VWS V14.01,2013-09-10 16:19:00,
2013-09-10 12:24:00,87.5,74.8,30.14,WSW,244,7.0,15.0,66,0.00,,CLR,0.01,VWS V14.01,2013-09-10 16:24:00,
2013-09-10 12:29:00,87.9,75.1,30.14,SW,224,1.0,15.0,66,0.00,,CLR,0.01,VWS V14.01,2013-09-10 16:29:00,
2013-09-10 12:34:00,88.1,74.9,30.14,WSW,253,11.0,12.0,65,0.00,,CLR,0.01,VWS V14.01,2013-09-10 16:34:00,
2013-09-10 12:39:00,87.8,75.0,30.14,SW,222,5.0,14.0,66,0.00,,CLR,0.01,VWS V14.01,2013-09-10 16:39:00,
2013-09-10 12:44:00,88.1,75.3,30.14,SW,220,9.0,14.0,66,0.00,,CLR,0.01,VWS V14.01,2013-09-10 16:44:00,
2013-09-10 12:49:00,88.2,75.0,30.13,SW,223,5.0,14.0,65,0.00,,CLR,0.01,VWS V14.01,2013-09-10 16:49:00,
2013-09-10 12:54:00,88.6,75.3,30.13,SW,220,4.0,14.0,65,0.00,,CLR,0.01,VWS V14.01,2013-09-10 16:54:00,
2013-09-10 12:59:00,89.2,75.4,30.13,SW,234,5.0,14.0,64,0.00,,CLR,0.01,VWS V14.01,2013-09-10 16:59:00,
2013-09-10 13:04:00,89.6,75.3,30.13,SSW,211,2.0,9.0,63,0.00,,CLR,0.01,VWS V14.01,2013-09-10 17:04:00,
2013-09-10 13:09:00,89.6,75.8,30.13,SSW,208,6.0,12.0,64,0.00,,CLR,0.01,VWS V14.01,2013-09-10 17:09:00,
2013-09-10 13:14:00,89.8,75.5,30.13,WNW,284,5.0,12.0,63,0.00,,CLR,0.01,VWS V14.01,2013-09-10 17:14:00,
2013-09-10 13:20:00,89.9,75.6,30.12,WNW,297,2.0,12.0,63,0.00,,CLR,0.01,VWS V14.01,2013-09-10 17:20:00,
2013-09-10 13:25:00,90.2,75.9,30.12,SW,227,4.0,12.0,63,0.00,,CLR,0.01,VWS V14.01,2013-09-10 17:25:00,
2013-09-10 13:30:00,90.7,76.4,30.12,SW,216,11.0,14.0,63,0.00,,CLR,0.01,VWS V14.01,2013-09-10 17:30:00,
2013-09-10 13:35:00,91.0,76.2,30.12,WSW,243,4.0,10.0,62,0.00,,CLR,0.01,VWS V14.01,2013-09-10 17:35:00,
2013-09-10 13:40:00,90.9,76.1,30.12,SW,236,9.0,12.0,62,0.00,,CLR,0.01,VWS V14.01,2013-09-10 17:40:00,
2013-09-10 13:45:00,91.0,76.2,30.12,WSW,249,7.0,12.0,62,0.00,,CLR,0.01,VWS V14.01,2013-09-10 17:45:00,
2013-09-10 13:50:00,91.2,76.4,30.12,WSW,255,0.0,12.0,62,0.00,,CLR,0.01,VWS V14.01,2013-09-10 17:50:00,
2013-09-10 13:55:00,91.4,76.1,30.12,West,260,3.0,12.0,61,0.00,,CLR,0.01,VWS V14.01,2013-09-10 17:55:00,
2013-09-10 14:00:00,91.4,76.6,30.12,SW,235,5.0,12.0,62,0.00,,CLR,0.01,VWS V14.01,2013-09-10 18:00:00,
2013-09-10 14:05:00,91.4,76.1,30.11,SW,217,11.0,16.0,61,0.00,,CLR,0.01,VWS V14.01,2013-09-10 18:05:00,
2013-09-10 14:10:00,91.3,76.5,30.11,SW,235,4.0,16.0,62,0.00,,CLR,0.01,VWS V14.01,2013-09-10 18:10:00,
2013-09-10 14:15:00,91.3,76.5,30.11,SW,214,6.0,16.0,62,0.00,,CLR,0.01,VWS V14.01,2013-09-10 18:15:00,
2013-09-10 14:20:00,91.5,76.2,30.11,WSW,257,8.0,16.0,61,0.00,,CLR,0.01,VWS V14.01,2013-09-10 18:20:00,
2013-09-10 14:25:00,91.2,76.4,30.11,SW,226,5.0,16.0,62,0.00,,CLR,0.01,VWS V14.01,2013-09-10 18:25:00,
2013-09-10 14:30:00,91.2,76.8,30.11,West,263,5.0,16.0,63,0.00,,CLR,0.01,VWS V14.01,2013-09-10 18:30:00,
2013-09-10 14:35:00,91.2,76.4,30.11,SW,230,6.0,11.0,62,0.00,,CLR,0.01,VWS V14.01,2013-09-10 18:35:00,
2013-09-10 14:40:00,91.3,76.9,30.10,WSW,258,3.0,11.0,63,0.00,,CLR,0.01,VWS V14.01,2013-09-10 18:40:00,
2013-09-10 14:45:00,91.6,76.7,30.11,SW,231,6.0,11.0,62,0.00,,CLR,0.01,VWS V14.01,2013-09-10 18:45:00,
2013-09-10 14:50:00,91.6,76.7,30.10,SW,232,5.0,11.0,62,0.00,,CLR,0.01,VWS V14.01,2013-09-10 18:50:00,
2013-09-10 14:55:00,92.0,77.1,30.10,WSW,237,3.0,11.0,62,0.00,,CLR,0.01,VWS V14.01,2013-09-10 18:55:00,
2013-09-10 15:00:00,92.7,77.3,30.10,WSW,247,4.0,4.0,61,0.00,,CLR,0.00,VWS V14.01,2013-09-10 19:00:00,
2013-09-10 15:05:00,92.6,76.7,30.10,WSW,247,11.0,12.0,60,0.00,,CLR,0.01,VWS V14.01,2013-09-10 19:05:00,
2013-09-10 15:10:00,92.6,77.7,30.10,WSW,247,7.0,12.0,62,0.00,,CLR,0.01,VWS V14.01,2013-09-10 19:10:00,
2013-09-10 15:15:00,92.9,77.5,30.10,WSW,247,1.0,12.0,61,0.00,,CLR,0.01,VWS V14.01,2013-09-10 19:15:00,
2013-09-10 15:20:00,92.9,77.5,30.10,WSW,242,10.0,13.0,61,0.00,,CLR,0.01,VWS V14.01,2013-09-10 19:20:00,
2013-09-10 15:25:00,93.1,77.7,30.09,SSW,201,7.0,13.0,61,0.00,,CLR,0.01,VWS V14.01,2013-09-10 19:25:00,
2013-09-10 15:30:00,93.3,77.3,30.09,WSW,238,7.0,7.0,60,0.00,,CLR,0.01,VWS V14.01,2013-09-10 19:30:00,
2013-09-10 15:35:00,93.3,77.3,30.09,SW,231,3.0,9.0,60,0.00,,CLR,0.01,VWS V14.01,2013-09-10 19:35:00,
2013-09-10 15:40:00,93.3,77.3,30.09,WSW,244,11.0,11.0,60,0.00,,CLR,0.01,VWS V14.01,2013-09-10 19:40:00,
2013-09-10 15:45:00,93.3,77.3,30.09,WSW,257,5.0,13.0,60,0.00,,CLR,0.01,VWS V14.01,2013-09-10 19:45:00,
2013-09-10 15:50:00,93.2,77.3,30.09,WSW,243,6.0,13.0,60,0.00,,CLR,0.01,VWS V14.01,2013-09-10 19:50:00,
2013-09-10 15:55:00,93.4,77.4,30.09,WSW,242,1.0,13.0,60,0.00,,CLR,0.01,VWS V14.01,2013-09-10 19:55:00,
2013-09-10 16:00:00,93.6,77.1,30.09,SW,232,7.0,10.0,59,0.00,,CLR,0.01,VWS V14.01,2013-09-10 20:00:00,
2013-09-10 16:05:00,93.4,76.9,30.09,WSW,253,4.0,13.0,59,0.00,,CLR,0.01,VWS V14.01,2013-09-10 20:05:00,
2013-09-10 16:10:00,93.3,77.3,30.09,West,266,6.0,13.0,60,0.00,,CLR,0.01,VWS V14.01,2013-09-10 20:10:00,
2013-09-10 16:15:00,93.1,77.2,30.09,West,275,5.0,13.0,60,0.00,,CLR,0.01,VWS V14.01,2013-09-10 20:15:00,
2013-09-10 16:20:00,93.1,77.2,30.09,WSW,249,4.0,13.0,60,0.00,,CLR,0.01,VWS V14.01,2013-09-10 20:20:00,
2013-09-10 16:25:00,93.2,77.3,30.09,SSW,212,0.0,13.0,60,0.00,,CLR,0.01,VWS V14.01,2013-09-10 20:25:00,
2013-09-10 16:30:00,93.2,76.8,30.09,West,266,4.0,7.0,59,0.00,,CLR,0.01,VWS V14.01,2013-09-10 20:30:00,
2013-09-10 16:35:00,93.2,76.8,30.09,SW,228,6.0,9.0,59,0.00,,CLR,0.01,VWS V14.01,2013-09-10 20:35:00,
2013-09-10 16:40:00,93.4,76.9,30.09,WSW,258,5.0,12.0,59,0.00,,CLR,0.01,VWS V14.01,2013-09-10 20:40:00,
2013-09-10 16:45:00,93.4,76.9,30.09,SSW,210,11.0,12.0,59,0.00,,CLR,0.01,VWS V14.01,2013-09-10 20:45:00,
2013-09-10 16:50:00,93.5,76.5,30.09,SW,234,6.0,12.0,58,0.00,,CLR,0.01,VWS V14.01,2013-09-10 20:50:00,
2013-09-10 16:55:00,93.2,76.8,30.09,WSW,242,5.0,14.0,59,0.00,,CLR,0.01,VWS V14.01,2013-09-10 20:55:00,
2013-09-10 17:00:00,93.2,76.8,30.09,WSW,254,4.0,8.0,59,0.00,,CLR,0.01,VWS V14.01,2013-09-10 21:00:00,
2013-09-10 17:05:00,93.0,77.1,30.09,WSW,248,5.0,13.0,60,0.00,,,0.01,VWS V14.01,2013-09-10 21:05:00,
2013-09-10 17:10:00,93.1,76.7,30.09,West,262,6.0,13.0,59,0.00,,,0.01,VWS V14.01,2013-09-10 21:10:00,
2013-09-10 17:15:00,93.2,76.8,30.09,SW,226,3.0,13.0,59,0.00,,,0.01,VWS V14.01,2013-09-10 21:15:00,
2013-09-10 17:20:00,93.2,76.8,30.09,SW,235,8.0,13.0,59,0.00,,,0.01,VWS V14.01,2013-09-10 21:20:00,
2013-09-10 17:25:00,92.7,76.8,30.09,WSW,243,4.0,13.0,60,0.00,,,0.01,VWS V14.01,2013-09-10 21:25:00,
2013-09-10 17:30:00,92.6,76.7,30.09,SSW,212,6.0,10.0,60,0.00,,,0.01,VWS V14.01,2013-09-10 21:30:00,
2013-09-10 17:35:00,92.6,76.7,30.09,SW,225,6.0,11.0,60,0.00,,,0.01,VWS V14.01,2013-09-10 21:35:00,
2013-09-10 17:40:00,92.7,76.8,30.09,WSW,246,3.0,11.0,60,0.00,,,0.01,VWS V14.01,2013-09-10 21:40:00,
2013-09-10 17:45:00,92.8,76.9,30.09,SW,217,2.0,11.0,60,0.00,,,0.01,VWS V14.01,2013-09-10 21:45:00,
2013-09-10 17:50:00,92.6,76.7,30.09,West,259,4.0,11.0,60,0.00,,,0.01,VWS V14.01,2013-09-10 21:50:00,
2013-09-10 17:55:00,92.7,76.8,30.09,WSW,240,3.0,11.0,60,0.00,,,0.01,VWS V14.01,2013-09-10 21:55:00,
2013-09-10 18:00:00,92.6,76.7,30.09,WSW,237,3.0,4.0,60,0.00,,,0.01,VWS V14.01,2013-09-10 22:00:00,
2013-09-10 18:05:00,92.5,76.6,30.09,WSW,238,5.0,7.0,60,0.00,,,0.01,VWS V14.01,2013-09-10 22:05:00,
2013-09-10 18:10:00,92.3,76.9,30.09,WSW,249,3.0,7.0,61,0.00,,,0.01,VWS V14.01,2013-09-10 22:10:00,
2013-09-10 18:15:00,91.7,76.8,30.09,SSW,195,4.0,11.0,62,0.00,,,0.01,VWS V14.01,2013-09-10 22:15:00,
2013-09-10 18:20:00,91.4,76.6,30.09,WSW,257,6.0,11.0,62,0.00,,,0.01,VWS V14.01,2013-09-10 22:20:00,
2013-09-10 18:25:00,91.1,76.8,30.09,SW,216,4.0,11.0,63,0.00,,,0.01,VWS V14.01,2013-09-10 22:25:00,
2013-09-10 18:30:00,90.9,76.6,30.09,SSW,198,3.0,4.0,63,0.00,,,0.01,VWS V14.01,2013-09-10 22:30:00,
2013-09-10 18:35:00,90.5,76.7,30.09,SW,223,4.0,7.0,64,0.00,,,0.01,VWS V14.01,2013-09-10 22:35:00,
2013-09-10 18:40:00,90.2,76.4,30.09,SSW,204,2.0,7.0,64,0.00,,,0.01,VWS V14.01,2013-09-10 22:40:00,
2013-09-10 18:45:00,89.9,76.6,30.10,SSW,204,3.0,7.0,65,0.00,,,0.01,VWS V14.01,2013-09-10 22:45:00,
2013-09-10 18:51:00,89.5,76.2,30.09,South,179,4.0,7.0,65,0.00,,,0.01,VWS V14.01,2013-09-10 22:51:00,
2013-09-10 18:56:00,89.2,76.4,30.10,SSW,211,2.0,7.0,66,0.00,,,0.01,VWS V14.01,2013-09-10 22:56:00,
2013-09-10 19:01:00,88.8,76.4,30.10,SSW,194,4.0,5.0,67,0.00,,,0.01,VWS V14.01,2013-09-10 23:01:00,
2013-09-10 19:06:00,88.5,76.2,30.10,SSW,197,5.0,9.0,67,0.00,,,0.01,VWS V14.01,2013-09-10 23:06:00,
2013-09-10 19:11:00,88.1,76.2,30.10,South,177,3.0,11.0,68,0.00,,,0.01,VWS V14.01,2013-09-10 23:11:00,
2013-09-10 19:16:00,87.8,75.9,30.10,South,190,2.0,11.0,68,0.00,,,0.01,VWS V14.01,2013-09-10 23:16:00,
2013-09-10 19:21:00,87.5,76.1,30.10,SSW,199,7.0,11.0,69,0.00,,,0.01,VWS V14.01,2013-09-10 23:21:00,
2013-09-10 19:26:00,87.2,75.8,30.10,SSW,210,2.0,11.0,69,0.00,,,0.01,VWS V14.01,2013-09-10 23:26:00,
2013-09-10 19:31:00,87.0,76.0,30.10,SW,222,1.0,6.0,70,0.00,,,0.01,VWS V14.01,2013-09-10 23:31:00,
2013-09-10 19:36:00,86.7,75.8,30.10,South,189,2.0,10.0,70,0.00,,,0.01,VWS V14.01,2013-09-10 23:36:00,
2013-09-10 19:41:00,86.4,75.9,30.10,SW,224,2.0,10.0,71,0.00,,,0.01,VWS V14.01,2013-09-10 23:41:00,
2013-09-10 19:46:00,86.2,75.7,30.10,SW,228,0.0,10.0,71,0.00,,,0.01,VWS V14.01,2013-09-10 23:46:00,
2013-09-10 19:51:00,86.0,75.5,30.10,South,178,0.0,10.0,71,0.00,,,0.01,VWS V14.01,2013-09-10 23:51:00,
2013-09-10 19:56:00,85.8,75.7,30.11,SSW,198,4.0,10.0,72,0.00,,,0.01,VWS V14.01,2013-09-10 23:56:00,
2013-09-10 20:01:00,85.6,75.5,30.11,SW,225,3.0,8.0,72,0.00,,,0.01,VWS V14.01,2013-09-11 00:01:00,
2013-09-10 20:06:00,85.6,75.5,30.11,SSW,213,1.0,9.0,72,0.00,,,0.01,VWS V14.01,2013-09-11 00:06:00,
2013-09-10 20:11:00,85.4,75.3,30.11,SW,231,4.0,9.0,72,0.00,,,0.01,VWS V14.01,2013-09-11 00:11:00,
2013-09-10 20:16:00,85.4,75.3,30.12,SSW,205,3.0,9.0,72,0.00,,,0.01,VWS V14.01,2013-09-11 00:16:00,
2013-09-10 20:21:00,85.2,75.6,30.11,SSW,205,0.0,9.0,73,0.00,,,0.01,VWS V14.01,2013-09-11 00:21:00,
2013-09-10 20:26:00,85.0,75.8,30.12,South,174,4.0,9.0,74,0.00,,,0.01,VWS V14.01,2013-09-11 00:26:00,
2013-09-10 20:31:00,84.8,75.6,30.12,WSW,241,4.0,4.0,74,0.00,,,0.01,VWS V14.01,2013-09-11 00:31:00,
2013-09-10 20:36:00,84.5,75.7,30.12,WSW,249,0.0,4.0,75,0.00,,,0.01,VWS V14.01,2013-09-11 00:36:00,
2013-09-10 20:41:00,84.0,75.6,30.12,NNW,337,1.0,5.0,76,0.00,,,0.01,VWS V14.01,2013-09-11 00:41:00,
2013-09-10 20:46:00,83.6,75.6,30.12,NNW,337,0.0,5.0,77,0.00,,,0.01,VWS V14.01,2013-09-11 00:46:00,
2013-09-10 20:51:00,83.0,75.1,30.12,NNW,337,0.0,5.0,77,0.00,,,0.01,VWS V14.01,2013-09-11 00:51:00,
2013-09-10 20:56:00,82.6,75.4,30.12,NNW,337,0.0,5.0,79,0.00,,,0.01,VWS V14.01,2013-09-11 00:56:00,
2013-09-10 21:01:00,82.0,74.8,30.13,NNW,337,0.0,0.0,79,0.00,,,0.01,VWS V14.01,2013-09-11 01:01:00,
2013-09-10 21:06:00,81.6,74.8,30.13,NNW,337,0.0,0.0,80,0.00,,,0.01,VWS V14.01,2013-09-11 01:06:00,
2013-09-10 21:11:00,81.1,74.7,30.13,NNW,337,0.0,1.0,81,0.00,,,0.01,VWS V14.01,2013-09-11 01:11:00,
2013-09-10 21:16:00,80.7,74.7,30.13,NNW,337,0.0,1.0,82,0.00,,,0.01,VWS V14.01,2013-09-11 01:16:00,
2013-09-10 21:21:00,80.3,74.7,30.13,NNW,337,0.0,1.0,83,0.00,,,0.01,VWS V14.01,2013-09-11 01:21:00,
2013-09-10 21:26:00,80.0,74.7,30.13,NNW,337,0.0,1.0,84,0.00,,,0.01,VWS V14.01,2013-09-11 01:26:00,
2013-09-10 21:31:00,79.7,74.4,30.13,NNW,337,0.0,0.0,84,0.00,,,0.01,VWS V14.01,2013-09-11 01:31:00,
2013-09-10 21:36:00,79.4,74.5,30.14,NNW,337,0.0,0.0,85,0.00,,,0.01,VWS V14.01,2013-09-11 01:36:00,
2013-09-10 21:41:00,79.1,74.2,30.14,NNW,337,0.0,0.0,85,0.00,,,0.01,VWS V14.01,2013-09-11 01:41:00,
2013-09-10 21:46:00,78.9,74.0,30.14,NNW,337,0.0,0.0,85,0.00,,,0.01,VWS V14.01,2013-09-11 01:46:00,
2013-09-10 21:51:00,78.7,73.8,30.14,NNW,337,0.0,0.0,85,0.00,,,0.01,VWS V14.01,2013-09-11 01:51:00,
2013-09-10 21:56:00,78.5,74.0,30.14,NNW,337,0.0,0.0,86,0.00,,,0.01,VWS V14.01,2013-09-11 01:56:00,
2013-09-10 22:01:00,78.4,73.9,30.14,NNW,337,0.0,0.0,86,0.00,,,0.01,VWS V14.01,2013-09-11 02:01:00,
2013-09-10 22:06:00,78.3,73.8,30.14,NNW,337,0.0,0.0,86,0.00,,,0.01,VWS V14.01,2013-09-11 02:06:00,
2013-09-10 22:11:00,78.1,73.9,30.14,NNW,337,0.0,0.0,87,0.00,,,0.01,VWS V14.01,2013-09-11 02:11:00,
2013-09-10 22:16:00,78.0,74.2,30.14,NNW,337,0.0,0.0,88,0.00,,,0.01,VWS V14.01,2013-09-11 02:16:00,
2013-09-10 22:21:00,77.8,74.0,30.14,NNW,337,0.0,0.0,88,0.00,,,0.01,VWS V14.01,2013-09-11 02:21:00,
2013-09-10 22:26:00,77.6,73.8,30.15,NNW,337,0.0,0.0,88,0.00,,,0.01,VWS V14.01,2013-09-11 02:26:00,
2013-09-10 22:31:00,77.4,73.6,30.15,NNW,337,0.0,0.0,88,0.00,,,0.01,VWS V14.01,2013-09-11 02:31:00,
2013-09-10 22:36:00,77.3,73.8,30.15,NNW,337,0.0,0.0,89,0.00,,,0.01,VWS V14.01,2013-09-11 02:36:00,
2013-09-10 22:41:00,77.2,73.7,30.15,NNW,337,0.0,0.0,89,0.00,,,0.01,VWS V14.01,2013-09-11 02:41:00,
2013-09-10 22:46:00,77.0,73.5,30.15,NNW,337,0.0,0.0,89,0.00,,,0.01,VWS V14.01,2013-09-11 02:46:00,
2013-09-10 22:51:00,76.8,73.3,30.15,NNW,337,0.0,0.0,89,0.00,,,0.01,VWS V14.01,2013-09-11 02:51:00,
2013-09-10 22:56:00,76.7,73.6,30.15,NNW,337,0.0,0.0,90,0.00,,,0.01,VWS V14.01,2013-09-11 02:56:00,
2013-09-10 23:01:00,76.6,73.4,30.15,NNW,337,0.0,0.0,90,0.00,,,0.01,VWS V14.01,2013-09-11 03:01:00,
2013-09-10 23:06:00,76.4,73.2,30.16,NNW,337,0.0,0.0,90,0.00,,,0.01,VWS V14.01,2013-09-11 03:06:00,
2013-09-10 23:11:00,76.3,73.2,30.16,NNW,337,0.0,0.0,90,0.00,,,0.01,VWS V14.01,2013-09-11 03:11:00,
2013-09-10 23:16:00,76.2,73.1,30.16,NNW,337,0.0,0.0,90,0.00,,,0.01,VWS V14.01,2013-09-11 03:16:00,
2013-09-10 23:21:00,76.0,73.2,30.16,NNW,337,0.0,0.0,91,0.00,,,0.01,VWS V14.01,2013-09-11 03:21:00,
2013-09-10 23:26:00,75.9,73.1,30.16,NNW,337,0.0,0.0,91,0.00,,,0.01,VWS V14.01,2013-09-11 03:26:00,
2013-09-10 23:31:00,75.7,72.9,30.17,NNW,337,0.0,0.0,91,0.00,,,0.01,VWS V14.01,2013-09-11 03:31:00,
2013-09-10 23:36:00,75.5,72.7,30.16,NNW,337,0.0,0.0,91,0.00,,,0.01,VWS V14.01,2013-09-11 03:36:00,
2013-09-10 23:41:00,75.4,72.6,30.16,NNW,337,0.0,0.0,91,0.00,,,0.01,VWS V14.01,2013-09-11 03:41:00,
2013-09-10 23:46:00,75.2,72.4,30.16,NNW,337,0.0,0.0,91,0.00,,,0.01,VWS V14.01,2013-09-11 03:46:00,
2013-09-10 23:51:00,75.0,72.2,30.16,NNW,337,0.0,0.0,91,0.00,,,0.01,VWS V14.01,2013-09-11 03:51:00,
2013-09-10 23:56:00,74.9,72.4,30.16,NNW,337,0.0,0.0,92,0.00,,,0.01,VWS V14.01,2013-09-11 03:56:00,